Find Starlink 32036

NORAD ID: 60141 Int'l Des: 2024-120 Owner: SPXS Country: US Constellation: starlink operational
LEOCIRCULAR

現在のビュー

3D地球を読み込み中...

About Starlink 32036

Starlink 32036 (NORAD 60141) is a starlink constellation satellite (v2 mini) launched Jun 27, 2024 by SPXS of US. It operates in LEO, CIRCULAR orbit with a mass of 730.00 kg.

次回通過

Passes for default location (London). Set your location on the main map for personalized predictions.

高度履歴

Loading altitude history...

軌道要素

1 60141U 24120G 26263.02860972 -.00001014 00000-0 -18884-4 0 9995
2 60141 53.1593 134.1729 0001283 79.4664 280.6484 15.34391096126256
Epoch: Sep 20, 2026 • Age: 29 hours

現在のステータス

高度 463.4 km
遠地点 / 近地点 N/A
速度 7.64 km/s
衛星直下点 25.64°N, 154.47°W
打ち上げ日 Jun 27, 2024
運用期間 2.2 years
タイプ internet

技術仕様

分類 Payload
質量 730.00 kg
乾燥質量 700.00 kg
長さ 0.30 m
スパン 29.00 m
形状 ? Box + pan
製造者 SPXS
バスタイプ Starlink V2M
フェーズステータス In Orbit
所有者/国 SPXS/US

Most Searched